Location: Unspecified
(47.9110°N, 14.3980°E)
Time: 05:34:01
(UTC+00:00)

NOSS 3-2 (C) - Pass Details

Date: 06 August 2020
Orbit: 800 x 1413 km, 63.4° (Epoch: 15 September)

Event Time Altitude Azimuth Distance (km) Brightness Sun altitude
Exits shadow 23:04:41 17° 255° (WSW) 2,100 5.1 -25.7°
Maximum altitude 23:09:02 47° 323° (NW) 1,261 4.3 -25.7°
Drops below altitude 10° 23:15:34 10° 36° (NE) 2,920 6.7 -25.7°
Sets 23:18:34 0° 43° (NE) 3,980 7.4 -25.7°
